Location: Berg
(48.4333°N, 13.9167°E)
Time: 02:45:52
(UTC+00:00)

Cosmos 2227 - Pass Details

Date: 18 September 2020
Orbit: 836 x 859 km, 71.0° (Epoch: 24 October)

Event Time Altitude Azimuth Distance (km) Brightness Sun altitude
Rises 17:57:43 0° 204° (SSW) 3,420 7.5 -8.7°
Reaches altitude 10° 18:00:09 10° 204° (SSW) 2,486 6.8 -9.1°
Maximum altitude 18:05:53 86° 117° (ESE) 864 4.2 -10.0°
Drops below altitude 10° 18:11:37 10° 29° (NNE) 2,490 6.5 -10.9°
Sets 18:14:05 0° 29° (NNE) 3,426 7.2 -11.3°
